{"data":{"norad_id":52320,"epoch":"2026-09-20T22:16:23.814624Z","epoch_age_seconds":87301,"freshness":"FRESH","line1":"1 52320U 22043A   26263.92805341  .00002878  00000+0  14807-3 0  9991","line2":"2 52320  97.3323 333.6443 0001069  17.3324 342.7946 15.17206415244077","mean_motion":15.17206415,"eccentricity":0.0001069,"inclination_deg":97.3323,"raan_deg":333.6443,"arg_perigee_deg":17.3324,"mean_anomaly_deg":342.7946,"bstar":0.00014807,"rev_number":24407,"period_min":94.911278107139,"perigee_km":513.55139173533,"apogee_km":515.02499224138,"semimajor_km":6892.4251919884,"source":"CELESTRAK","updated_at":"2026-09-21T09:00:08.531828Z"}}